| time (UTC) | temp F | wind direction | speed MPH | gust MPH | rain 1hr in | rain 24hr in | rain mn in | humidity % | barometer mb |
| 20260906190705 | 50 | 1 | 0.0 | 2.0 | 0.00 | 0.00 | 0.00 | 28 | 1028.7 |
| 20260906185704 | 52 | 1 | 0.0 | 2.0 | 0.00 | 0.00 | 0.00 | 27 | 1028.9 |
| 20260906184704 | 53 | 0 | 0.0 | 0.0 | 0.00 | 0.00 | 0.00 | 27 | 1029.0 |
| 20260906183703 | 53 | 225 | 0.0 | 0.0 | 0.00 | 0.00 | 0.00 | 27 | 1028.8 |
| 20260906182703 | 51 | 314 | 0.0 | 1.0 | 0.00 | 0.00 | 0.00 | 27 | 1028.6 |
| 20260906181703 | 54 | 192 | 0.0 | 1.0 | 0.00 | 0.00 | 0.00 | 26 | 1028.7 |
| 20260906180703 | 51 | 1 | 0.0 | 2.0 | 0.00 | 0.00 | 0.00 | 27 | 1028.3 |
| 20260906175702 | 52 | 336 | 0.0 | 2.0 | 0.00 | 0.00 | 0.00 | 27 | 1028.2 |
| 20260906174702 | 53 | 0 | 0.0 | 0.0 | 0.00 | 0.00 | 0.00 | 27 | 1028.2 |
| 20260906173702 | 54 | 0 | 0.0 | 0.0 | 0.00 | 0.00 | 0.00 | 26 | 1028.2 |
| 20260906172701 | 54 | 0 | 0.0 | 0.0 | 0.00 | 0.00 | 0.00 | 26 | 1028.3 |
| 20260906171701 | 56 | 181 | 0.0 | 1.0 | 0.00 | 0.00 | 0.00 | 26 | 1028.4 |
| 20260906170701 | 58 | 181 | 0.0 | 1.0 | 0.00 | 0.00 | 0.00 | 25 | 1028.5 |
| 20260906165701 | 60 | 0 | 0.0 | 0.0 | 0.00 | 0.00 | 0.00 | 25 | 1028.6 |
| 20260906164700 | 61 | 225 | 0.0 | 1.0 | 0.00 | 0.00 | 0.00 | 24 | 1028.6 |
| 20260906163700 | 63 | 287 | 0.0 | 3.0 | 0.00 | 0.00 | 0.00 | 24 | 1028.7 |
| 20260906162700 | 64 | 298 | 0.0 | 2.0 | 0.00 | 0.00 | 0.00 | 24 | 1028.8 |
| 20260906161659 | 65 | 221 | 1.0 | 4.0 | 0.00 | 0.00 | 0.00 | 23 | 1028.9 |
| 20260906160659 | 66 | 238 | 2.0 | 5.0 | 0.00 | 0.00 | 0.00 | 23 | 1028.9 |
| 20260906155659 | 70 | 220 | 2.0 | 4.0 | 0.00 | 0.00 | 0.00 | 22 | 1029.0 |
| 20260906154659 | 71 | 244 | 2.0 | 5.0 | 0.00 | 0.00 | 0.00 | 22 | 1029.2 |
| 20260906153658 | 70 | 229 | 1.0 | 3.0 | 0.00 | 0.00 | 0.00 | 22 | 1029.1 |
| 20260906152658 | 73 | 220 | 1.0 | 4.0 | 0.00 | 0.00 | 0.00 | 21 | 1029.4 |
| 20260906151658 | 70 | 239 | 3.0 | 5.0 | 0.00 | 0.00 | 0.00 | 22 | 1029.1 |
| 20260906150657 | 70 | 287 | 3.0 | 5.0 | 0.00 | 0.00 | 0.00 | 22 | 1029.1 |
| 20260906145657 | 70 | 265 | 3.0 | 6.0 | 0.00 | 0.00 | 0.00 | 22 | 1029.1 |
| 20260906144657 | 70 | 257 | 3.0 | 6.0 | 0.00 | 0.00 | 0.00 | 22 | 1029.0 |
| 20260906143656 | 72 | 289 | 3.0 | 7.0 | 0.00 | 0.00 | 0.00 | 21 | 1029.1 |
| 20260906142656 | 72 | 265 | 3.0 | 5.0 | 0.00 | 0.00 | 0.00 | 21 | 1029.0 |
| 20260906141656 | 71 | 280 | 3.0 | 7.0 | 0.00 | 0.00 | 0.00 | 22 | 1029.0 |
| 20260906140656 | 69 | 231 | 5.0 | 9.0 | 0.00 | 0.00 | 0.00 | 22 | 1028.8 |
| 20260906135655 | 71 | 256 | 4.0 | 7.0 | 0.00 | 0.00 | 0.00 | 22 | 1029.0 |
| 20260906134655 | 69 | 259 | 4.0 | 8.0 | 0.00 | 0.00 | 0.00 | 22 | 1028.7 |
| 20260906133655 | 69 | 279 | 4.0 | 8.0 | 0.00 | 0.00 | 0.00 | 22 | 1028.7 |
| 20260906132654 | 69 | 332 | 4.0 | 7.0 | 0.00 | 0.00 | 0.00 | 22 | 1028.8 |
| 20260906131654 | 70 | 312 | 4.0 | 8.0 | 0.00 | 0.00 | 0.00 | 22 | 1028.9 |
| 20260906130654 | 70 | 296 | 5.0 | 8.0 | 0.00 | 0.00 | 0.00 | 22 | 1028.9 |
| 20260906125654 | 71 | 266 | 4.0 | 8.0 | 0.00 | 0.00 | 0.00 | 22 | 1028.9 |
| 20260906124653 | 69 | 262 | 3.0 | 6.0 | 0.00 | 0.00 | 0.00 | 22 | 1028.9 |
| 20260906123653 | 66 | 284 | 3.0 | 6.0 | 0.00 | 0.00 | 0.00 | 23 | 1028.6 |
| 20260906122653 | 67 | 253 | 5.0 | 8.0 | 0.00 | 0.00 | 0.00 | 23 | 1028.7 |
| 20260906121652 | 69 | 293 | 3.0 | 8.0 | 0.00 | 0.00 | 0.00 | 22 | 1028.8 |
| 20260906120652 | 67 | 282 | 3.0 | 5.0 | 0.00 | 0.00 | 0.00 | 23 | 1028.7 |
| 20260906115652 | 70 | 204 | 2.0 | 5.0 | 0.00 | 0.00 | 0.00 | 22 | 1029.0 |
| 20260906114651 | 70 | 292 | 4.0 | 6.0 | 0.00 | 0.00 | 0.00 | 22 | 1029.1 |
| 20260906113651 | 71 | 252 | 4.0 | 8.0 | 0.00 | 0.00 | 0.00 | 22 | 1029.4 |
| 20260906112651 | 71 | 240 | 3.0 | 5.0 | 0.00 | 0.00 | 0.00 | 22 | 1029.2 |
| 20260906111651 | 67 | 234 | 5.0 | 8.0 | 0.00 | 0.00 | 0.00 | 23 | 1029.0 |
| 20260906110650 | 68 | 226 | 4.0 | 7.0 | 0.00 | 0.00 | 0.00 | 23 | 1029.0 |
| 20260906105650 | 68 | 243 | 5.0 | 7.0 | 0.00 | 0.00 | 0.00 | 23 | 1029.0 |
| 20260906104650 | 70 | 264 | 3.0 | 6.0 | 0.00 | 0.00 | 0.00 | 22 | 1029.2 |
| 20260906103649 | 67 | 266 | 1.0 | 6.0 | 0.00 | 0.00 | 0.00 | 23 | 1028.9 |
| 20260906102649 | 69 | 224 | 3.0 | 6.0 | 0.00 | 0.00 | 0.00 | 22 | 1029.1 |
| 20260906101649 | 69 | 195 | 2.0 | 5.0 | 0.00 | 0.00 | 0.00 | 22 | 1029.2 |
| 20260906100649 | 66 | 227 | 3.0 | 6.0 | 0.00 | 0.00 | 0.00 | 23 | 1029.1 |
| 20260906095648 | 69 | 216 | 4.0 | 5.0 | 0.00 | 0.00 | 0.00 | 22 | 1029.0 |
| 20260906094648 | 67 | 232 | 4.0 | 6.0 | 0.00 | 0.00 | 0.00 | 23 | 1029.1 |
| 20260906093648 | 65 | 214 | 5.0 | 10.0 | 0.00 | 0.00 | 0.00 | 23 | 1028.8 |
| 20260906092647 | 64 | 250 | 4.0 | 6.0 | 0.00 | 0.00 | 0.00 | 24 | 1028.7 |
| 20260906091647 | 65 | 234 | 3.0 | 6.0 | 0.00 | 0.00 | 0.00 | 23 | 1029.0 |
| 20260906090647 | 68 | 177 | 1.0 | 3.0 | 0.00 | 0.00 | 0.00 | 22 | 1029.0 |
| 20260906085647 | 64 | 133 | 1.0 | 3.0 | 0.00 | 0.00 | 0.00 | 24 | 1028.6 |
| 20260906084646 | 63 | 217 | 1.0 | 9.0 | 0.00 | 0.00 | 0.00 | 24 | 1028.4 |
| 20260906083646 | 62 | 265 | 3.0 | 9.0 | 0.00 | 0.00 | 0.00 | 24 | 1028.3 |
| 20260906082646 | 64 | 317 | 2.0 | 4.0 | 0.00 | 0.00 | 0.00 | 24 | 1028.4 |
| 20260906081645 | 64 | 316 | 2.0 | 5.0 | 0.00 | 0.00 | 0.00 | 24 | 1028.2 |
| 20260906080645 | 69 | 84 | 1.0 | 3.0 | 0.00 | 0.00 | 0.00 | 22 | 1028.6 |
| 20260906075645 | 63 | 82 | 0.0 | 2.0 | 0.00 | 0.00 | 0.00 | 24 | 1028.1 |
| 20260906074644 | 63 | 97 | 1.0 | 4.0 | 0.00 | 0.00 | 0.00 | 24 | 1028.0 |
| 20260906073644 | 67 | 278 | 0.0 | 2.0 | 0.00 | 0.00 | 0.00 | 23 | 1028.3 |
| 20260906072644 | 65 | 216 | 0.0 | 2.0 | 0.00 | 0.00 | 0.00 | 23 | 1028.0 |
| 20260906071644 | 61 | 215 | 1.0 | 2.0 | 0.00 | 0.00 | 0.00 | 24 | 1027.7 |
| 20260906070643 | 62 | 219 | 0.0 | 3.0 | 0.00 | 0.00 | 0.00 | 24 | 1027.7 |
| 20260906065643 | 63 | 46 | 0.0 | 0.0 | 0.00 | 0.00 | 0.00 | 24 | 1027.7 |
| 20260906064643 | 65 | 74 | 1.0 | 6.0 | 0.00 | 0.00 | 0.00 | 23 | 1027.8 |
| 20260906063642 | 59 | 99 | 1.0 | 5.0 | 0.00 | 0.00 | 0.00 | 25 | 1027.2 |
| 20260906062642 | 59 | 75 | 1.0 | 3.0 | 0.00 | 0.00 | 0.00 | 25 | 1027.2 |
| 20260906061642 | 59 | 90 | 0.0 | 2.0 | 0.00 | 0.00 | 0.00 | 25 | 1027.0 |
| 20260906060641 | 56 | 90 | 0.0 | 1.0 | 0.00 | 0.00 | 0.00 | 26 | 1026.7 |
| 20260906055641 | 57 | 93 | 1.0 | 3.0 | 0.00 | 0.00 | 0.00 | 26 | 1026.7 |
| 20260906054641 | 54 | 0 | 0.0 | 0.0 | 0.00 | 0.00 | 0.00 | 26 | 1026.2 |
| 20260906053641 | 52 | 0 | 0.0 | 0.0 | 0.00 | 0.00 | 0.00 | 27 | 1026.0 |
| 20260906052640 | 51 | 0 | 0.0 | 0.0 | 0.00 | 0.00 | 0.00 | 27 | 1025.8 |
| 20260906051640 | 50 | 0 | 0.0 | 0.0 | 0.00 | 0.00 | 0.00 | 27 | 1025.7 |
| 20260906050640 | 51 | 0 | 0.0 | 0.0 | 0.00 | 0.00 | 0.00 | 27 | 1025.7 |
| 20260906045639 | 50 | 0 | 0.0 | 0.0 | 0.00 | 0.00 | 0.00 | 27 | 1025.7 |
| 20260906044639 | 50 | 0 | 0.0 | 0.0 | 0.00 | 0.00 | 0.00 | 28 | 1025.5 |
| 20260906043639 | 49 | 0 | 0.0 | 0.0 | 0.00 | 0.00 | 0.00 | 28 | 1025.4 |
| 20260906042639 | 49 | 0 | 0.0 | 0.0 | 0.00 | 0.00 | 0.00 | 29 | 1025.3 |
| 20260906041638 | 49 | 0 | 0.0 | 0.0 | 0.00 | 0.00 | 0.00 | 28 | 1025.3 |
| 20260906040638 | 49 | 0 | 0.0 | 0.0 | 0.00 | 0.00 | 0.00 | 28 | 1025.2 |
| 20260906035638 | 49 | 138 | 0.0 | 0.0 | 0.00 | 0.00 | 0.00 | 28 | 1025.1 |
| 20260906034637 | 49 | 181 | 0.0 | 0.0 | 0.00 | 0.00 | 0.00 | 28 | 1024.9 |
| 20260906033637 | 49 | 181 | 0.0 | 1.0 | 0.00 | 0.00 | 0.00 | 28 | 1024.8 |
| 20260906032637 | 49 | 0 | 0.0 | 0.0 | 0.00 | 0.00 | 0.00 | 28 | 1024.7 |
| 20260906031637 | 49 | 0 | 0.0 | 0.0 | 0.00 | 0.00 | 0.00 | 28 | 1024.7 |
| 20260906030636 | 49 | 0 | 0.0 | 0.0 | 0.00 | 0.00 | 0.00 | 28 | 1024.5 |
| 20260906025636 | 50 | 0 | 0.0 | 0.0 | 0.00 | 0.00 | 0.00 | 28 | 1024.6 |
| 20260906024636 | 50 | 0 | 0.0 | 0.0 | 0.00 | 0.00 | 0.00 | 28 | 1024.6 |
| 20260906023635 | 51 | 158 | 0.0 | 2.0 | 0.00 | 0.00 | 0.00 | 27 | 1024.7 |
| 20260906022635 | 53 | 162 | 0.0 | 2.0 | 0.00 | 0.00 | 0.00 | 27 | 1024.9 |
| 20260906021635 | 52 | 149 | 0.0 | 2.0 | 0.00 | 0.00 | 0.00 | 27 | 1024.8 |
| 20260906020634 | 52 | 0 | 0.0 | 0.0 | 0.00 | 0.00 | 0.00 | 27 | 1024.8 |
| 20260906015634 | 53 | 0 | 0.0 | 0.0 | 0.00 | 0.00 | 0.00 | 27 | 1024.8 |
| 20260906014634 | 53 | 0 | 0.0 | 0.0 | 0.00 | 0.00 | 0.00 | 27 | 1024.7 |
| 20260906013634 | 54 | 1 | 0.0 | 0.0 | 0.00 | 0.00 | 0.00 | 26 | 1024.7 |
| 20260906012633 | 54 | 307 | 0.0 | 2.0 | 0.00 | 0.00 | 0.00 | 26 | 1024.7 |
| 20260906011633 | 55 | 346 | 0.0 | 2.0 | 0.00 | 0.00 | 0.00 | 26 | 1024.8 |
| 20260906010633 | 56 | 270 | 0.0 | 1.0 | 0.00 | 0.00 | 0.00 | 26 | 1024.8 |
| 20260906005632 | 57 | 307 | 2.0 | 5.0 | 0.00 | 0.00 | 0.00 | 26 | 1025.0 |
| 20260906004632 | 57 | 286 | 2.0 | 4.0 | 0.00 | 0.00 | 0.00 | 25 | 1024.8 |
| 20260906003632 | 57 | 288 | 1.0 | 5.0 | 0.00 | 0.00 | 0.00 | 26 | 1024.5 |
| 20260906002632 | 53 | 314 | 0.0 | 1.0 | 0.00 | 0.00 | 0.00 | 27 | 1024.0 |
| 20260906001631 | 53 | 314 | 0.0 | 1.0 | 0.00 | 0.00 | 0.00 | 27 | 1023.9 |
| 20260906000631 | 53 | 210 | 0.0 | 2.0 | 0.00 | 0.00 | 0.00 | 27 | 1023.9 |
| 20260905235631 | 54 | 135 | 0.0 | 0.0 | 0.00 | 0.00 | 0.00 | 27 | 1023.9 |
| 20260905234630 | 56 | 140 | 0.0 | 2.0 | 0.00 | 0.00 | 0.00 | 26 | 1023.8 |
| 20260905233630 | 54 | 0 | 0.0 | 0.0 | 0.00 | 0.00 | 0.00 | 26 | 1023.9 |
| 20260905232630 | 55 | 0 | 0.0 | 0.0 | 0.00 | 0.00 | 0.00 | 26 | 1024.0 |
| 20260905231630 | 56 | 90 | 0.0 | 1.0 | 0.00 | 0.00 | 0.00 | 26 | 1024.1 |
| 20260905230629 | 58 | 174 | 0.0 | 2.0 | 0.00 | 0.00 | 0.00 | 25 | 1024.3 |
| 20260905225629 | 61 | 173 | 1.0 | 3.0 | 0.00 | 0.00 | 0.00 | 25 | 1024.4 |
| 20260905224629 | 59 | 181 | 0.0 | 3.0 | 0.00 | 0.00 | 0.00 | 25 | 1024.3 |
| 20260905223628 | 61 | 194 | 1.0 | 4.0 | 0.00 | 0.00 | 0.00 | 25 | 1024.5 |
| 20260905222628 | 59 | 169 | 1.0 | 6.0 | 0.00 | 0.00 | 0.00 | 25 | 1024.3 |
| 20260905221628 | 61 | 102 | 0.0 | 5.0 | 0.00 | 0.00 | 0.00 | 24 | 1024.3 |
| 20260905220627 | 60 | 334 | 0.0 | 1.0 | 0.00 | 0.00 | 0.00 | 25 | 1024.3 |
| 20260905215627 | 62 | 170 | 2.0 | 4.0 | 0.00 | 0.00 | 0.00 | 24 | 1024.3 |
| 20260905214627 | 62 | 129 | 2.0 | 6.0 | 0.00 | 0.00 | 0.00 | 24 | 1024.3 |
| 20260905213627 | 62 | 146 | 1.0 | 5.0 | 0.00 | 0.00 | 0.00 | 24 | 1024.2 |
| 20260905212626 | 60 | 138 | 1.0 | 4.0 | 0.00 | 0.00 | 0.00 | 25 | 1023.6 |
| 20260905211626 | 58 | 45 | 0.0 | 1.0 | 0.00 | 0.00 | 0.00 | 25 | 1023.7 |
| 20260905210626 | 58 | 222 | 0.0 | 1.0 | 0.00 | 0.00 | 0.00 | 25 | 1023.6 |
| 20260905205625 | 59 | 95 | 1.0 | 4.0 | 0.00 | 0.00 | 0.00 | 25 | 1023.7 |
| 20260905204625 | 58 | 146 | 1.0 | 3.0 | 0.00 | 0.00 | 0.00 | 25 | 1023.6 |
| 20260905203625 | 59 | 194 | 1.0 | 3.0 | 0.00 | 0.00 | 0.00 | 25 | 1023.6 |
| 20260905202625 | 58 | 139 | 0.0 | 3.0 | 0.00 | 0.00 | 0.00 | 25 | 1023.6 |
| 20260905201624 | 58 | 154 | 0.0 | 2.0 | 0.00 | 0.00 | 0.00 | 25 | 1023.5 |
| 20260905200624 | 57 | 135 | 0.0 | 0.0 | 0.00 | 0.00 | 0.00 | 26 | 1023.3 |
| 20260905195624 | 57 | 0 | 0.0 | 0.0 | 0.00 | 0.00 | 0.00 | 26 | 1023.3 |
| 20260905194623 | 57 | 0 | 0.0 | 0.0 | 0.00 | 0.00 | 0.00 | 26 | 1023.3 |
| 20260905193623 | 58 | 0 | 0.0 | 0.0 | 0.00 | 0.00 | 0.00 | 25 | 1023.2 |
| 20260905192623 | 58 | 0 | 0.0 | 0.0 | 0.00 | 0.00 | 0.00 | 25 | 1023.1 |
| 20260905191622 | 57 | 0 | 0.0 | 0.0 | 0.00 | 0.00 | 0.00 | 26 | 1023.0 |